Time,TemperatureF,DewpointF,PressureIn,WindDirection,WindDirectionDegrees,WindSpeedMPH,WindSpeedGustMPH,Humidity,HourlyPrecipIn,Conditions,Clouds,dailyrainin,SoftwareType,DateUTC
2013-08-17 00:06:00,84.7,76.0,0.00,North,0,1.1,0.0,70,0.00,,,-99.99,Homeseer,2013-08-17 04:06:00,
2013-08-17 00:16:00,84.6,76.2,0.00,North,0,2.7,2.7,71,0.00,,,-99.99,Homeseer,2013-08-17 04:16:00,
2013-08-17 00:26:00,84.6,77.2,0.00,SSE,157,1.3,4.0,74,0.00,,,-99.99,Homeseer,2013-08-17 04:26:00,
2013-08-17 00:36:00,84.4,77.7,0.00,SSE,157,2.0,2.0,76,0.00,,,-99.99,Homeseer,2013-08-17 04:36:00,
2013-08-17 00:46:00,84.4,77.7,0.00,North,0,4.7,4.7,76,0.00,,,-99.99,Homeseer,2013-08-17 04:46:00,
2013-08-17 00:56:00,84.4,77.4,0.00,North,0,1.1,1.1,75,0.00,,,-99.99,Homeseer,2013-08-17 04:56:00,
2013-08-17 01:06:00,84.4,77.4,0.00,ESE,112,0.9,0.0,75,0.00,,,-99.99,Homeseer,2013-08-17 05:06:00,
2013-08-17 01:16:00,84.4,77.7,0.00,North,0,2.5,3.1,76,0.00,,,-99.99,Homeseer,2013-08-17 05:16:00,
2013-08-17 01:26:00,84.4,75.4,0.00,SSE,157,3.4,4.0,69,0.00,,,-99.99,Homeseer,2013-08-17 05:26:00,
2013-08-17 01:36:00,84.4,74.3,0.00,ESE,112,3.1,3.4,66,0.00,,,-99.99,Homeseer,2013-08-17 05:36:00,
2013-08-17 01:46:00,84.2,74.1,0.00,SSE,157,2.7,3.1,66,0.00,,,-99.99,Homeseer,2013-08-17 05:46:00,
2013-08-17 01:56:00,84.4,74.3,0.00,SSE,157,3.6,4.3,66,0.00,,,-99.99,Homeseer,2013-08-17 05:56:00,
2013-08-17 02:06:00,84.4,75.4,0.00,SE,135,2.9,2.9,69,0.00,,,-99.99,Homeseer,2013-08-17 06:06:00,
2013-08-17 02:16:00,84.2,76.2,0.00,North,0,2.2,5.4,72,0.00,,,-99.99,Homeseer,2013-08-17 06:16:00,
2013-08-17 02:26:00,84.2,76.8,0.00,SE,135,4.0,4.5,74,0.00,,,-99.99,Homeseer,2013-08-17 06:26:00,
2013-08-17 02:36:00,84.0,76.0,0.00,South,180,3.6,3.6,72,0.00,,,-99.99,Homeseer,2013-08-17 06:36:00,
2013-08-17 02:46:00,84.0,76.0,0.00,SSE,157,3.8,3.8,72,0.00,,,-99.99,Homeseer,2013-08-17 06:46:00,
2013-08-17 02:56:00,84.0,76.0,0.00,ESE,112,4.5,4.5,72,0.00,,,-99.99,Homeseer,2013-08-17 06:56:00,
2013-08-17 03:06:00,84.0,77.3,0.00,SSE,157,2.7,3.1,76,0.00,,,-99.99,Homeseer,2013-08-17 07:06:00,
2013-08-17 03:16:00,83.8,76.5,0.00,SE,135,4.7,4.7,74,0.00,,,-99.99,Homeseer,2013-08-17 07:16:00,
2013-08-17 03:26:00,83.8,76.8,0.00,ESE,112,3.6,3.6,75,0.00,,,-99.99,Homeseer,2013-08-17 07:26:00,
2013-08-17 03:36:00,83.8,77.1,0.00,ESE,112,4.7,4.7,76,0.00,,,-99.99,Homeseer,2013-08-17 07:36:00,
2013-08-17 03:46:00,83.8,77.4,0.00,SE,135,4.5,4.5,77,0.00,,,-99.99,Homeseer,2013-08-17 07:46:00,
2013-08-17 03:56:00,83.8,77.1,0.00,SSE,157,3.6,3.6,76,0.00,,,-99.99,Homeseer,2013-08-17 07:56:00,
2013-08-17 04:06:00,83.8,76.5,0.00,SSE,157,2.5,2.5,74,0.00,,,-99.99,Homeseer,2013-08-17 08:06:00,
2013-08-17 04:16:00,83.8,76.1,0.00,ENE,67,4.3,6.3,73,0.00,,,-99.99,Homeseer,2013-08-17 08:16:00,
2013-08-17 04:26:00,83.8,75.5,0.00,South,180,4.0,4.3,71,0.00,,,-99.99,Homeseer,2013-08-17 08:26:00,
2013-08-17 04:36:00,83.8,75.5,0.00,South,180,2.5,2.9,71,0.00,,,-99.99,Homeseer,2013-08-17 08:36:00,
2013-08-17 04:46:00,83.8,74.1,0.00,WSW,247,3.8,3.8,67,0.00,,,-99.99,Homeseer,2013-08-17 08:46:00,
2013-08-17 04:56:00,83.7,73.3,0.00,SE,135,1.1,3.4,65,0.00,,,-99.99,Homeseer,2013-08-17 08:56:00,
2013-08-17 05:06:00,83.8,71.9,0.00,North,0,2.0,2.0,61,0.00,,,-99.99,Homeseer,2013-08-17 09:06:00,
2013-08-17 05:16:00,83.8,71.9,0.00,SSE,157,3.1,4.0,61,0.00,,,-99.99,Homeseer,2013-08-17 09:16:00,
2013-08-17 05:26:00,83.7,71.8,0.00,SSE,157,2.7,2.7,61,0.00,,,-99.99,Homeseer,2013-08-17 09:26:00,
2013-08-17 05:36:00,83.7,71.4,0.00,SSE,157,3.6,3.6,60,0.00,,,-99.99,Homeseer,2013-08-17 09:36:00,
2013-08-17 05:46:00,83.7,71.8,0.00,SE,135,2.9,2.9,61,0.00,,,-99.99,Homeseer,2013-08-17 09:46:00,
2013-08-17 05:56:00,83.5,70.9,0.00,SE,135,4.5,4.7,59,0.00,,,-99.99,Homeseer,2013-08-17 09:56:00,
2013-08-17 06:06:00,83.5,71.3,0.00,North,0,3.8,3.8,60,0.00,,,-99.99,Homeseer,2013-08-17 10:06:00,
2013-08-17 06:16:00,83.5,71.6,0.00,ESE,112,2.7,2.7,61,0.00,,,-99.99,Homeseer,2013-08-17 10:16:00,
2013-08-17 06:26:00,83.3,72.2,0.00,SSE,157,2.7,2.7,63,0.00,,,-99.99,Homeseer,2013-08-17 10:26:00,
2013-08-17 06:36:00,83.5,72.0,0.00,ESE,112,4.9,4.9,62,0.00,,,-99.99,Homeseer,2013-08-17 10:36:00,
2013-08-17 06:46:00,83.3,72.9,0.00,South,180,1.3,2.2,65,0.00,,,-99.99,Homeseer,2013-08-17 10:46:00,
2013-08-17 06:56:00,83.3,73.6,0.00,North,0,2.5,3.8,67,0.00,,,-99.99,Homeseer,2013-08-17 10:56:00,
2013-08-17 07:06:00,83.3,73.6,0.00,South,180,2.0,2.2,67,0.00,,,-99.99,Homeseer,2013-08-17 11:06:00,
2013-08-17 07:16:00,83.5,74.2,0.00,North,0,2.5,2.5,68,0.00,,,-99.99,Homeseer,2013-08-17 11:16:00,
2013-08-17 07:26:00,83.7,74.7,0.00,South,180,3.4,3.8,69,0.00,,,-99.99,Homeseer,2013-08-17 11:26:00,
2013-08-17 07:36:00,83.8,74.5,0.00,North,0,2.2,2.2,68,0.00,,,-99.99,Homeseer,2013-08-17 11:36:00,
2013-08-17 07:46:00,84.2,74.8,0.00,South,180,0.0,0.0,68,0.00,,,-99.99,Homeseer,2013-08-17 11:46:00,
2013-08-17 07:56:00,84.6,75.2,0.00,SSE,157,0.0,0.0,68,0.00,,,-99.99,Homeseer,2013-08-17 11:56:00,
2013-08-17 08:06:00,84.9,75.1,0.00,SW,225,1.1,2.5,67,0.00,,,-99.99,Homeseer,2013-08-17 12:06:00,
2013-08-17 08:16:00,85.3,75.2,0.00,North,0,0.9,0.0,66,0.00,,,-99.99,Homeseer,2013-08-17 12:16:00,
2013-08-17 08:26:00,86.0,75.8,0.00,North,0,2.7,5.4,66,0.00,,,-99.99,Homeseer,2013-08-17 12:26:00,
2013-08-17 08:36:00,86.2,75.6,0.00,ESE,112,1.3,1.3,65,0.00,,,-99.99,Homeseer,2013-08-17 12:36:00,
2013-08-17 08:46:00,86.9,75.6,0.00,North,0,1.3,0.0,63,0.00,,,-99.99,Homeseer,2013-08-17 12:46:00,
2013-08-17 08:56:00,87.1,74.6,0.00,SSE,157,2.9,2.9,60,0.00,,,-99.99,Homeseer,2013-08-17 12:56:00,
2013-08-17 09:06:00,87.1,73.8,0.00,SSE,157,2.5,2.7,58,0.00,,,-99.99,Homeseer,2013-08-17 13:06:00,
2013-08-17 09:16:00,87.8,74.4,0.00,North,0,4.0,4.3,58,0.00,,,-99.99,Homeseer,2013-08-17 13:16:00,
2013-08-17 09:26:00,87.8,72.8,0.00,SSE,157,2.5,5.6,54,0.00,,,-99.99,Homeseer,2013-08-17 13:26:00,
2013-08-17 09:36:00,88.0,73.4,0.00,North,0,2.9,5.4,55,0.00,,,-99.99,Homeseer,2013-08-17 13:36:00,
2013-08-17 09:46:00,88.7,74.0,0.00,ESE,112,3.1,3.1,55,0.00,,,-99.99,Homeseer,2013-08-17 13:46:00,
2013-08-17 09:56:00,88.7,71.3,0.00,SSE,157,2.5,3.1,49,0.00,,,-99.99,Homeseer,2013-08-17 13:56:00,
2013-08-17 10:06:00,88.9,71.0,0.00,South,180,2.9,2.9,48,0.00,,,-99.99,Homeseer,2013-08-17 14:06:00,
2013-08-17 10:16:00,89.2,70.8,0.00,SE,135,3.6,3.8,47,0.00,,,-99.99,Homeseer,2013-08-17 14:16:00,
2013-08-17 10:26:00,89.6,71.7,0.00,North,0,2.5,3.4,48,0.00,,,-99.99,Homeseer,2013-08-17 14:26:00,
2013-08-17 10:36:00,89.8,71.8,0.00,South,180,3.8,3.8,48,0.00,,,-99.99,Homeseer,2013-08-17 14:36:00,
2013-08-17 10:46:00,90.3,71.3,0.00,SE,135,2.5,2.7,46,0.00,,,-99.99,Homeseer,2013-08-17 14:46:00,
2013-08-17 10:56:00,90.7,71.7,0.00,North,0,3.6,5.4,46,0.00,,,-99.99,Homeseer,2013-08-17 14:56:00,
2013-08-17 11:06:00,90.7,70.6,0.00,East,90,1.3,2.9,44,0.00,,,-99.99,Homeseer,2013-08-17 15:06:00,
2013-08-17 11:16:00,90.5,69.4,0.00,SSE,157,2.5,4.0,42,0.00,,,-99.99,Homeseer,2013-08-17 15:16:00,
2013-08-17 11:26:00,90.7,69.6,0.00,South,180,2.9,4.7,42,0.00,,,-99.99,Homeseer,2013-08-17 15:26:00,
2013-08-17 11:36:00,91.0,68.7,0.00,SSE,157,3.8,3.8,40,0.00,,,-99.99,Homeseer,2013-08-17 15:36:00,
2013-08-17 11:46:00,90.5,68.8,0.00,SE,135,3.6,6.5,41,0.00,,,-99.99,Homeseer,2013-08-17 15:46:00,
2013-08-17 11:56:00,89.6,69.1,0.00,North,0,4.5,4.5,43,0.00,,,-99.99,Homeseer,2013-08-17 15:56:00,
2013-08-17 12:06:00,89.8,68.2,0.00,ESE,112,5.8,5.8,41,0.00,,,-99.99,Homeseer,2013-08-17 16:06:00,
2013-08-17 12:16:00,90.0,68.9,0.00,SSE,157,4.5,7.8,42,0.00,,,-99.99,Homeseer,2013-08-17 16:16:00,
2013-08-17 12:26:00,90.1,69.0,0.00,SE,135,4.3,4.3,42,0.00,,,-99.99,Homeseer,2013-08-17 16:26:00,
2013-08-17 12:36:00,90.3,69.7,0.00,East,90,6.0,6.0,43,0.00,,,-99.99,Homeseer,2013-08-17 16:36:00,
2013-08-17 12:46:00,90.1,67.9,0.00,South,180,4.3,4.3,40,0.00,,,-99.99,Homeseer,2013-08-17 16:46:00,
2013-08-17 12:56:00,90.9,68.1,0.00,North,0,4.5,4.5,39,0.00,,,-99.99,Homeseer,2013-08-17 16:56:00,
2013-08-17 13:06:00,90.5,70.5,0.00,ESE,112,3.6,3.6,44,0.00,,,-99.99,Homeseer,2013-08-17 17:06:00,
2013-08-17 13:16:00,90.5,70.5,0.00,ESE,112,6.0,6.0,44,0.00,,,-99.99,Homeseer,2013-08-17 17:16:00,
2013-08-17 13:26:00,90.1,70.1,0.00,SSE,157,3.8,3.8,44,0.00,,,-99.99,Homeseer,2013-08-17 17:26:00,
2013-08-17 13:36:00,91.0,68.7,0.00,SSE,157,3.1,0.0,40,0.00,,,-99.99,Homeseer,2013-08-17 17:36:00,
2013-08-17 13:46:00,91.0,68.7,0.00,SSE,157,2.7,2.7,40,0.00,,,-99.99,Homeseer,2013-08-17 17:46:00,
2013-08-17 13:56:00,90.1,69.6,0.00,SE,135,4.5,4.5,43,0.00,,,-99.99,Homeseer,2013-08-17 17:56:00,
2013-08-17 14:06:00,89.2,69.8,0.00,SE,135,6.3,7.6,45,0.00,,,-99.99,Homeseer,2013-08-17 18:06:00,
2013-08-17 14:16:00,90.3,68.1,0.00,ESE,112,4.9,6.3,40,0.00,,,-99.99,Homeseer,2013-08-17 18:16:00,
2013-08-17 14:26:00,90.9,69.2,0.00,South,180,4.9,4.9,41,0.00,,,-99.99,Homeseer,2013-08-17 18:26:00,
2013-08-17 14:36:00,90.9,70.3,0.00,North,0,3.1,3.1,43,0.00,,,-99.99,Homeseer,2013-08-17 18:36:00,
2013-08-17 14:46:00,91.0,68.7,0.00,SE,135,4.0,4.0,40,0.00,,,-99.99,Homeseer,2013-08-17 18:46:00,
2013-08-17 14:56:00,90.5,67.7,0.00,ESE,112,2.5,4.3,39,0.00,,,-99.99,Homeseer,2013-08-17 18:56:00,
2013-08-17 15:06:00,89.4,69.0,0.00,SE,135,5.8,5.8,43,0.00,,,-99.99,Homeseer,2013-08-17 19:06:00,
2013-08-17 15:16:00,88.5,69.2,0.00,South,180,3.6,6.0,45,0.00,,,-99.99,Homeseer,2013-08-17 19:16:00,
2013-08-17 15:26:00,88.9,68.0,0.00,South,180,2.0,2.0,42,0.00,,,-99.99,Homeseer,2013-08-17 19:26:00,
2013-08-17 15:36:00,89.6,68.1,0.00,SSE,157,3.8,3.8,41,0.00,,,-99.99,Homeseer,2013-08-17 19:36:00,
2013-08-17 15:46:00,90.0,67.8,0.00,SE,135,3.4,6.0,40,0.00,,,-99.99,Homeseer,2013-08-17 19:46:00,
2013-08-17 15:56:00,90.1,67.4,0.00,SSE,157,2.2,3.8,39,0.00,,,-99.99,Homeseer,2013-08-17 19:56:00,
2013-08-17 16:15:00,90.1,67.9,0.00,SE,135,2.2,2.7,40,0.00,,,-99.99,Homeseer,2013-08-17 20:15:00,
2013-08-17 16:25:00,89.6,68.1,0.00,SE,135,4.7,4.7,41,0.00,,,-99.99,Homeseer,2013-08-17 20:25:00,
2013-08-17 16:35:00,89.4,68.4,0.00,ESE,112,2.2,4.0,42,0.00,,,-99.99,Homeseer,2013-08-17 20:35:00,
2013-08-17 16:45:00,89.2,68.8,0.00,SE,135,3.4,3.4,43,0.00,,,-99.99,Homeseer,2013-08-17 20:45:00,
2013-08-17 16:55:00,89.2,69.3,0.00,SE,135,3.1,3.1,44,0.00,,,-99.99,Homeseer,2013-08-17 20:55:00,
2013-08-17 17:05:00,89.1,69.7,0.00,North,0,4.3,4.3,45,0.00,,,-99.99,Homeseer,2013-08-17 21:05:00,
2013-08-17 17:15:00,88.3,69.5,0.00,ESE,112,4.0,4.0,46,0.00,,,-99.99,Homeseer,2013-08-17 21:15:00,
2013-08-17 17:25:00,88.9,70.1,0.00,SSE,157,3.4,5.8,46,0.00,,,-99.99,Homeseer,2013-08-17 21:25:00,
2013-08-17 17:35:00,88.3,70.5,0.00,North,0,3.6,3.8,48,0.00,,,-99.99,Homeseer,2013-08-17 21:35:00,
2013-08-17 17:45:00,88.5,70.7,0.00,South,180,4.3,4.3,48,0.00,,,-99.99,Homeseer,2013-08-17 21:45:00,
2013-08-17 17:55:00,88.2,70.9,0.00,North,0,2.7,4.9,49,0.00,,,-99.99,Homeseer,2013-08-17 21:55:00,
2013-08-17 18:05:00,87.8,70.5,0.00,North,0,3.1,3.1,49,0.00,,,-99.99,Homeseer,2013-08-17 22:05:00,
2013-08-17 18:15:00,88.0,70.2,0.00,SE,135,2.5,5.4,48,0.00,,,-99.99,Homeseer,2013-08-17 22:15:00,
2013-08-17 18:25:00,87.8,70.0,0.00,SE,135,4.7,4.7,48,0.00,,,-99.99,Homeseer,2013-08-17 22:25:00,
2013-08-17 18:35:00,87.3,65.5,0.00,ESE,112,3.8,3.8,40,0.00,,,-99.99,Homeseer,2013-08-17 22:35:00,
2013-08-17 18:45:00,87.1,68.0,0.00,SSE,157,2.0,4.7,45,0.00,,,-99.99,Homeseer,2013-08-17 22:45:00,
2013-08-17 18:55:00,87.1,69.4,0.00,South,180,3.1,4.3,48,0.00,,,-99.99,Homeseer,2013-08-17 22:55:00,
2013-08-17 19:05:00,87.1,69.9,0.00,SSE,157,0.0,1.3,49,0.00,,,-99.99,Homeseer,2013-08-17 23:05:00,
2013-08-17 19:15:00,86.4,69.7,0.00,ESE,112,4.9,4.9,50,0.00,,,-99.99,Homeseer,2013-08-17 23:15:00,
2013-08-17 19:25:00,86.2,69.1,0.00,South,180,2.9,5.8,49,0.00,,,-99.99,Homeseer,2013-08-17 23:25:00,
2013-08-17 19:35:00,86.0,71.1,0.00,ESE,112,3.1,3.1,54,0.00,,,-99.99,Homeseer,2013-08-17 23:35:00,
2013-08-17 19:45:00,85.6,70.8,0.00,SE,135,2.7,2.9,54,0.00,,,-99.99,Homeseer,2013-08-17 23:45:00,
2013-08-17 19:55:00,85.5,71.1,0.00,SSE,157,4.3,5.4,55,0.00,,,-99.99,Homeseer,2013-08-17 23:55:00,
2013-08-17 20:05:00,85.3,70.9,0.00,ESE,112,3.4,3.4,55,0.00,,,-99.99,Homeseer,2013-08-18 00:05:00,
2013-08-17 20:15:00,85.3,71.7,0.00,SSE,157,4.3,0.0,57,0.00,,,-99.99,Homeseer,2013-08-18 00:15:00,
2013-08-17 20:25:00,85.1,71.5,0.00,ESE,112,2.0,2.7,57,0.00,,,-99.99,Homeseer,2013-08-18 00:25:00,
2013-08-17 20:35:00,85.1,71.5,0.00,ESE,112,2.2,5.6,57,0.00,,,-99.99,Homeseer,2013-08-18 00:35:00,
2013-08-17 20:45:00,84.9,71.8,0.00,North,0,3.1,3.8,58,0.00,,,-99.99,Homeseer,2013-08-18 00:45:00,
2013-08-17 20:55:00,84.9,71.4,0.00,SE,135,2.2,6.5,57,0.00,,,-99.99,Homeseer,2013-08-18 00:55:00,
2013-08-17 21:05:00,84.9,71.4,0.00,North,0,4.3,4.3,57,0.00,,,-99.99,Homeseer,2013-08-18 01:05:00,
2013-08-17 21:15:00,84.9,71.0,0.00,ESE,112,4.5,0.0,56,0.00,,,-99.99,Homeseer,2013-08-18 01:15:00,
2013-08-17 21:25:00,84.7,71.2,0.00,SSE,157,1.3,1.3,57,0.00,,,-99.99,Homeseer,2013-08-18 01:25:00,
2013-08-17 21:35:00,84.7,71.2,0.00,ESE,112,2.0,4.7,57,0.00,,,-99.99,Homeseer,2013-08-18 01:35:00,
2013-08-17 21:45:00,84.6,72.3,0.00,SSE,157,2.9,3.6,60,0.00,,,-99.99,Homeseer,2013-08-18 01:45:00,
2013-08-17 21:55:00,84.4,72.5,0.00,ESE,112,4.0,9.0,61,0.00,,,-99.99,Homeseer,2013-08-18 01:55:00,
2013-08-17 22:05:00,84.4,72.5,0.00,ESE,112,5.4,5.8,61,0.00,,,-99.99,Homeseer,2013-08-18 02:05:00,
2013-08-17 22:15:00,84.4,72.9,0.00,SE,135,2.7,2.7,62,0.00,,,-99.99,Homeseer,2013-08-18 02:15:00,
2013-08-17 22:25:00,84.4,70.1,0.00,SSE,157,2.0,0.0,55,0.00,,,-99.99,Homeseer,2013-08-18 02:25:00,
2013-08-17 22:35:00,84.4,71.3,0.00,North,0,3.6,4.3,58,0.00,,,-99.99,Homeseer,2013-08-18 02:35:00,
2013-08-17 22:45:00,84.2,71.9,0.00,SSE,157,2.9,2.9,60,0.00,,,-99.99,Homeseer,2013-08-18 02:45:00,
2013-08-17 22:55:00,84.2,72.7,0.00,ESE,112,3.6,6.9,62,0.00,,,-99.99,Homeseer,2013-08-18 02:55:00,
2013-08-17 23:05:00,84.2,71.5,0.00,SE,135,3.4,3.4,59,0.00,,,-99.99,Homeseer,2013-08-18 03:05:00,
2013-08-17 23:15:00,84.0,72.5,0.00,South,180,4.3,5.8,62,0.00,,,-99.99,Homeseer,2013-08-18 03:15:00,
2013-08-17 23:25:00,84.0,72.9,0.00,SSE,157,3.6,3.6,63,0.00,,,-99.99,Homeseer,2013-08-18 03:25:00,
2013-08-17 23:35:00,84.0,72.1,0.00,ESE,112,5.6,5.8,61,0.00,,,-99.99,Homeseer,2013-08-18 03:35:00,
2013-08-17 23:45:00,84.0,71.7,0.00,ESE,112,3.6,3.6,60,0.00,,,-99.99,Homeseer,2013-08-18 03:45:00,
2013-08-17 23:55:00,83.8,71.1,0.00,North,0,4.0,4.0,59,0.00,,,-99.99,Homeseer,2013-08-18 03:55:00,